CZ-6A DEB, 54959

Orbit data source: Space-Track

CZ-6A DEB, 54959 is space debris in SSO originally from a launch on Fri, 11 Nov 2022 UTC launched from the Taiyaun Space Center, China (TSC). Debris objects in space refer to the collection of defunct objects orbiting the Earth. Examples of debris include non-operational satellites, rocket bodies, and fragments generated from explosions, collisions, or faulty payload assembly.

Loading next visibility...
Identifier
54959, 2022-151SY
Orbit
SSO
Country
Flag of CNCN / PRC
Related business
Manufacturer
SAST
Mission
Spacecraft
Bus & Motor
Unknown
Mass
Unknown
Launch date (UTC)
2022-11-11 (4 years ago)
Launch vehicle
Unknown
Launch site
Taiyaun Space Center, China (TSC)
Object type
Payload
Rocket body
Debris
Shape & HBR
Unknown shape, 0.3 m
Radar Cross Section
Medium (>0.1 m² and <1 m²)

Expand to show TLE details & history
Last TLE update: 2 days ago

TLE from 2 days ago
0 CZ-6A DEB
1 54959U 22151SY  26171.43342067  .00000651  00000-0  40844-3 0  9994
2 54959  98.8635 160.5088 0074222   8.4488 351.7911 14.06646392184573
Epoch: 2026-06-20T10:24Z
TLE epoch observation values (Epoch: 2026-06-20T10:24:07.545Z)
Latitude
-0.00009°
Longitude
95.82926°
Altitude
820.507 km
Speed
7.47 km/s
True Right ascension
10h 42m 02s
True Declination
0° 00' 00"
Sunlit
Object was in daylight at epoch
Visualization orbit readout
Latitude
Unknown
Longitude
Unknown
Altitude
Unknown
Speed
Unknown
Apparent Right ascension
Unknown
Apparent Declination
Unknown
Sunlit
N/A
Visualization observer readout
Local Sidereal Time
21:26:54
Azimuth
Unknown
Elevation
Unknown
Doppler factor
Unknown
Orbital elements
Apogee altitude
921.837 km
Perigee altitude
814.271 km
Semi-major axis
7,246.191 km
Eccentricity
0.00742
Inclination
98.8635°
RAAN
160.5088°
Arg. of periapsis
8.4488°
True anomaly
351.66854°
Mean anomaly
351.7911°
Eccentric anomaly
351.72993°
Mean motion
3.51867 °/min
Orbital period
102.31 mins
BSTAR
0.00040844
Loading maneuver chart data...
Computing Atmospheric mass density...
Loading historical data...
Loading historical data...
Loading historical data...
Loading historical data...
Loading historical data...
Loading historical data...
Loading historical data...

Documentation

Showing up to 5 results
|